EKRAN 6 1 12120U 80104A 21064.81363795 -.00000278 00000-0 00000-0 0 9992 2 12120 10.7291 310.7318 0008657 37.0769 204.1372 1.00248197108065 SL-12 R/B(2) 1 12471U 80104E 21065.14316941 -.00000298 00000-0 00000-0 0 9991 2 12471 10.0264 308.2601 0033284 141.0925 206.9276 1.01344958100404